Location: Arroyo Grande
(40.2671°N, 4.2512°W)
Time: 01:19:38
(UTC+00:00)

Cosmos 2278 Rocket - Pass Details

Date: 05 October 2023
Orbit: 842 x 844 km, 71.0° (Epoch: 03 December)

Event Time Altitude Azimuth Distance (km) Brightness Sun altitude
Rises 18:14:54 0° 341° (NNW) 3,410 5.6 -4.9°
Reaches altitude 10° 18:17:27 10° 347° (NNW) 2,471 4.8 -5.4°
Maximum altitude 18:22:56 48° 62° (ENE) 1,089 2.5 -6.5°
Drops below altitude 10° 18:28:22 10° 136° (SE) 2,455 4.2 -7.5°
Sets 18:30:53 0° 142° (SE) 3,386 5.0 -8.0°
